Simultaneous Nadir Overpasses (SNOs) Predictions

Prediction of SNOs between GOES-16 and NOAA-20 Satellite Orbit:

Table of predicted SNOs for the next 14.0 days since TLE Epoch: 10/3/2025
Index Date Time (GOES-16) GOES-16 Lat,Lon NOAA-20 Lat,Lon Distance(km) Time Diff (sec)
1 10/03/2025 20:32:37 0.06,-104.69 -0.49,-107.25 291.39 80
2 10/04/2025 20:16:31 0.07,-104.69 0.49,-102.71 226.00 80
3 10/06/2025 08:38:17 -0.06,-104.70 0.68,-107.97 373.17 80
4 10/07/2025 08:16:51 -0.06,-104.69 -0.36,-103.44 143.79 80
5 10/08/2025 20:38:45 0.06,-104.69 -0.86,-108.72 459.31 80
6 10/09/2025 20:22:39 0.06,-104.69 0.18,-104.19 57.84 80
7 10/12/2025 08:25:39 -0.06,-104.69 -0.02,-104.91 24.72 80
8 10/13/2025 08:04:13 -0.06,-104.68 -1.02,-100.36 491.84 80
9 10/14/2025 20:26:06 0.06,-104.67 -0.18,-105.65 111.65 80
10 10/15/2025 20:10:00 0.07,-104.68 0.88,-101.12 405.67 80
11 10/17/2025 08:31:46 -0.06,-104.68 0.32,-106.37 192.26 80
